Погода в Авиморе

Великобритания     57°11′44″N   3°49′37″W
темп.,
°C
ветер,
м/с
пор.,
м/с
влажн.,
%
обл.,
%
осадки,
мм/ч
давл.,
гПа
погр.,
м
16 мая, вс
вс1601:00+5юз018877 0.2 99827
04:00+5ююз118758 0.1 99819
07:00+6ю118038 0.1 997144
10:00+11юв115040 0.0 9971430
13:00+12юв114399 0.1 9971735
16:00+12ю114897 0.1 9971497
19:00+11ссз015750 0.3 997828
22:00+7ю118648 0.6 99932
17 мая, пн
пн1701:00+5ююз239396 0.7 100165
04:00+4ююз229254 0.0 100235
07:00+6з018656 0.0 1003162
10:00+10с22666 0.4 1003911
13:00+13ссв224555 1.0 10021940
16:00+13с3345100 0.5 10031730
19:00+9с4468100 0.7 1005720
22:00+6ссз1194100 0.9 1006126
18 мая, вт
вт1801:00+6сз1194100 1.3 100799
04:00+6з1193100 0.2 100724
07:00+7зсз1487100 0.6 1008346
10:00+8з3466100 0.3 10081217
13:00+9зсз3558100 0.4 10091397
16:00+10сз3660100 0.3 10091419
19:00+6ссв2488100 0.7 1011552
22:00+5с1393100 0.3 1012475
19 мая, ср
ср1901:00+4з139199 0.5 1013386
04:00+3юз239092 0.1 1013143
07:00+4з247845 0.1 1013403
10:00+6зсз356199 0.2 10141452
13:00+7сз4652100 0.3 10141681
16:00+8сз565196 0.1 10151733
19:00+7сз466175 0.1 10161297
22:00+2зсз378115 0.1 1019181
20 мая, чт
чт2001:000зюз239016 0.1 102061
04:000юз23895 0.0 101949
07:00+3з23665 0.0 1018415
10:00+8зсз01476 0.0 10161198
13:00+12юв1235100 0.0 10121608
16:00+12ю3338100 0.0 10091959
19:00+9юв3558100 0.0 10061109
22:00+4вюв31093100 0.7 1004945